Weather in Srednyaya Muya

Russia / Irkutsk Oblast     54°20′04″N   103°31′14″E
temp.,
°C
wind,
m/s
gust,
m/s
humid.,
%
clouds,
%
prec.,
mm/h
press.,
hPa
HPBL,
m
17 june, thu
thu1723:00+10nnw31193100 2.0 1013411
02:00+8nnw229715 2.0 101532
05:00+7nw119620 0.0 101511
08:00+12nw138398 0.0 1015284
11:00+19nw364742 0.0 10131555
14:00+21nnw563391 0.0 10122809
17:00+22nnw463071 0.0 10102942
20:00+18nnw11511 0.0 100912
18 june, fri
fri1823:00+11e11770 0.0 101010
02:00+9ne11858 0.0 101010
05:00+8ne11905 0.1 101010
08:00+15nnw12611 0.1 1009272
11:00+21n35350 0.0 10071741
14:00+24nnw462845 0.0 10052791
17:00+24nne352638 0.0 10042910
20:00+21ne1147100 0.0 100411
19 june, sat
sat1923:00+15n005969 0.0 100511
02:00+13ese006682 0.0 100510
05:00+14ne116275 0.0 100411
08:00+14nne116685 0.0 100516
11:00+22se114286 0.0 10041074
14:00+24ssw233786 0.0 10022392
17:00+18sw016931 0.1 100216
20:00+19s126994 0.1 100249
20 june, sun
sun2023:00+15sse118755 0.5 100211
02:00+13ese119574 1.2 100210
05:00+13se1195100 0.4 100310
08:00+16ssw2488100 0.6 1003421
11:00+20ssw3459100 0.1 1003971
14:00+22sw345626 0.6 10021344
17:00+25wsw344344 0.1 10012082
20:00+22n11638 0.1 100239
21 june, mon
mon2123:00+15ene11870 0.0 100411
02:00+13e11940 0.0 100510
05:00+12e11950 0.0 100610
08:00+18w117114 0.0 1006371
11:00+24wsw22515 0.0 10061316
14:00+26w23387 0.0 10042122
17:00+27wnw223431 0.0 10042373
20:00+24n11515 0.0 100422